Location: Bu�n Treun
(12.1333°N, 108.3167°E)
Time: 00:27:37
(UTC+00:00)

H-2A R/B - Pass Details

Date: 13 July 2020
Orbit: 577 x 656 km, 98.5° (Epoch: 03 August)

Event Time Altitude Azimuth Distance (km) Brightness Sun altitude
Exits shadow 21:08:37 36° 268° (W) 1,016 2.7 -18.7°
Drops below altitude 10° 21:12:24 10° 326° (NW) 2,018 4.6 -17.9°
Sets 21:14:43 0° 335° (NNW) 2,913 5.5 -17.4°
